WZZ278 EPGD-LCPH

Flight info

Callsign WZZ278
Flight time N/A
Altitude 37000
Route IRLUN N133 BIBKA DCT PODAN DCT ROBTU DCT KENIN DCT KARIL DCT RONBU/N0450F390 DCT RIXEN UG1 IST UT35 AYT UA16 TOMBI/N0460F330 M855 DASNI M32 TOBAL
Aircraft A319/M-SDE3FGHIRWY/LB1

Departure

Time N/A
Airport Gdańsk Lech Wałęsa Airport (EPGD)

Arrival

Time 2026-04-24 10:32
Airport Paphos International Airport (LCPH)
Time Latitude Longitude Altitude Speed Heading
2026-04-24 09:03 43.58086 27.05882 39013 ft 471 kts 137°
2026-04-24 09:04 43.52849 27.12019 39001 ft 473 kts 137°
2026-04-24 09:04 43.47639 27.18111 38997 ft 474 kts 137°
2026-04-24 09:05 43.42446 27.24178 39004 ft 474 kts 137°
2026-04-24 09:05 43.37249 27.30242 39000 ft 474 kts 137°
2026-04-24 09:06 43.32029 27.36321 39009 ft 474 kts 137°
2026-04-24 09:06 43.26834 27.42359 39000 ft 474 kts 137°
2026-04-24 09:07 43.21576 27.48456 38996 ft 474 kts 137°
2026-04-24 09:07 43.13761 27.57493 39001 ft 473 kts 138°
2026-04-24 09:08 43.08579 27.63467 38999 ft 473 kts 137°
2026-04-24 09:08 43.03449 27.69385 38992 ft 473 kts 138°
2026-04-24 09:09 42.98259 27.75368 38996 ft 473 kts 139°
2026-04-24 09:09 42.93029 27.81367 38998 ft 473 kts 139°
2026-04-24 09:10 42.87834 27.87296 38991 ft 473 kts 139°
2026-04-24 09:10 42.82671 27.93148 39002 ft 473 kts 139°
2026-04-24 09:11 42.77491 27.99025 38997 ft 473 kts 139°
2026-04-24 09:11 42.72299 28.04911 39005 ft 473 kts 139°
2026-04-24 09:12 42.67043 28.10860 39003 ft 473 kts 139°
2026-04-24 09:12 42.61848 28.16731 39006 ft 472 kts 139°
2026-04-24 09:13 42.56582 28.22667 39008 ft 472 kts 139°
2026-04-24 09:13 42.51226 28.28689 39010 ft 472 kts 139°
2026-04-24 09:14 42.45943 28.34616 39009 ft 472 kts 140°
2026-04-24 09:14 42.40701 28.40484 39008 ft 472 kts 140°
2026-04-24 09:15 42.35484 28.46314 39010 ft 472 kts 140°
2026-04-24 09:15 42.30250 28.52148 39014 ft 472 kts 140°
2026-04-24 09:16 42.24975 28.58014 39014 ft 472 kts 140°
2026-04-24 09:16 42.19697 28.63868 39018 ft 471 kts 140°
2026-04-24 09:17 42.14473 28.69592 39016 ft 471 kts 144°
2026-04-24 09:17 42.08520 28.74158 39019 ft 469 kts 159°
2026-04-24 09:18 42.02035 28.76628 39020 ft 467 kts 173°
2026-04-24 09:18 41.95244 28.77211 39033 ft 466 kts 181°
2026-04-24 09:19 41.88525 28.77387 39034 ft 465 kts 181°
2026-04-24 09:19 41.81810 28.77622 39049 ft 464 kts 180°
2026-04-24 09:20 41.74039 28.77931 39046 ft 463 kts 180°
2026-04-24 09:20 41.68446 28.78156 39044 ft 463 kts 180°
2026-04-24 09:21 41.61807 28.78416 39030 ft 463 kts 180°
2026-04-24 09:21 41.55143 28.78672 39034 ft 463 kts 180°
2026-04-24 09:22 41.48438 28.78930 39034 ft 462 kts 180°
2026-04-24 09:22 41.41759 28.79193 39041 ft 461 kts 180°
2026-04-24 09:23 41.35122 28.79453 39043 ft 461 kts 180°
2026-04-24 09:23 41.28428 28.79709 39059 ft 460 kts 180°
2026-04-24 09:24 41.23021 28.79917 39056 ft 460 kts 180°
2026-04-24 09:24 41.16405 28.80194 39049 ft 460 kts 180°
2026-04-24 09:25 41.09641 28.80482 39054 ft 459 kts 180°
2026-04-24 09:25 41.02929 28.80864 39050 ft 459 kts 177°
2026-04-24 09:26 40.96389 28.82134 39050 ft 461 kts 169°
2026-04-24 09:26 40.89941 28.84517 39033 ft 462 kts 162°
2026-04-24 09:27 40.83752 28.87778 39035 ft 462 kts 159°
2026-04-24 09:27 40.77602 28.91146 39028 ft 462 kts 159°
2026-04-24 09:28 40.71394 28.94530 39028 ft 462 kts 159°
2026-04-24 09:28 40.65221 28.97880 39015 ft 462 kts 159°
2026-04-24 09:29 40.59053 29.01221 39021 ft 461 kts 159°
2026-04-24 09:29 40.52849 29.04571 39012 ft 461 kts 160°
2026-04-24 09:30 40.45609 29.08475 39009 ft 461 kts 160°
2026-04-24 09:30 40.40440 29.11253 39019 ft 461 kts 160°
2026-04-24 09:31 40.34201 29.14605 39019 ft 461 kts 160°
2026-04-24 09:31 40.28044 29.17905 39013 ft 460 kts 160°
2026-04-24 09:32 40.21822 29.21233 39011 ft 460 kts 160°
2026-04-24 09:32 40.15640 29.24533 39012 ft 460 kts 160°
2026-04-24 09:33 40.09438 29.27837 39011 ft 460 kts 160°
2026-04-24 09:33 40.03348 29.31074 39004 ft 459 kts 160°
2026-04-24 09:34 39.97200 29.34337 38991 ft 459 kts 160°
2026-04-24 09:34 39.91082 29.37575 38997 ft 459 kts 160°
2026-04-24 09:35 39.84928 29.40925 38998 ft 460 kts 159°
2026-04-24 09:35 39.78778 29.44317 38995 ft 460 kts 160°
2026-04-24 09:36 39.72604 29.47711 39001 ft 460 kts 160°
2026-04-24 09:36 39.66410 29.51105 39001 ft 460 kts 160°
2026-04-24 09:37 39.60253 29.54351 38997 ft 459 kts 162°
2026-04-24 09:37 39.54003 29.57443 38999 ft 459 kts 162°
2026-04-24 09:38 39.47829 29.60502 38998 ft 459 kts 162°
2026-04-24 09:38 39.41608 29.63596 38993 ft 459 kts 162°
2026-04-24 09:39 39.35382 29.66700 38992 ft 458 kts 163°
2026-04-24 09:39 39.29203 29.69791 38992 ft 458 kts 163°
2026-04-24 09:40 39.22973 29.72884 38985 ft 458 kts 163°
2026-04-24 09:40 39.16753 29.75958 38983 ft 458 kts 163°
2026-04-24 09:41 39.10549 29.79018 38981 ft 457 kts 163°
2026-04-24 09:41 39.04333 29.82075 38974 ft 457 kts 163°
2026-04-24 09:42 38.98135 29.85116 38975 ft 456 kts 163°
2026-04-24 09:42 38.91901 29.88170 38988 ft 456 kts 164°
2026-04-24 09:43 38.85686 29.91182 38978 ft 455 kts 165°
2026-04-24 09:43 38.79499 29.94113 38984 ft 454 kts 165°
2026-04-24 09:44 38.73271 29.97063 38977 ft 456 kts 164°
2026-04-24 09:44 38.66977 30.00047 38983 ft 456 kts 165°
2026-04-24 09:45 38.60784 30.02975 38986 ft 455 kts 165°
2026-04-24 09:45 38.54596 30.05896 38995 ft 454 kts 165°
2026-04-24 09:46 38.48424 30.08805 38993 ft 454 kts 165°
2026-04-24 09:46 38.42162 30.11750 38992 ft 454 kts 165°
2026-04-24 09:47 38.35888 30.14694 38984 ft 452 kts 165°
2026-04-24 09:47 38.29705 30.17567 38988 ft 453 kts 166°
2026-04-24 09:48 38.23494 30.20413 38986 ft 452 kts 166°
2026-04-24 09:48 38.17223 30.23293 38979 ft 452 kts 166°
2026-04-24 09:49 38.10985 30.26152 38992 ft 452 kts 166°
2026-04-24 09:49 38.04748 30.29005 38993 ft 452 kts 166°
2026-04-24 09:50 37.98585 30.31818 39005 ft 450 kts 166°
2026-04-24 09:50 37.92363 30.34641 39063 ft 450 kts 166°
2026-04-24 09:51 37.86192 30.37430 39032 ft 449 kts 167°
2026-04-24 09:51 37.80013 30.40210 39052 ft 449 kts 167°
2026-04-24 09:52 37.73839 30.42992 39051 ft 449 kts 167°
2026-04-24 09:52 37.67755 30.45731 39027 ft 447 kts 167°
2026-04-24 09:53 37.61589 30.48500 38991 ft 447 kts 167°
2026-04-24 09:53 37.55455 30.51249 39049 ft 446 kts 167°
2026-04-24 09:54 37.49362 30.53978 39008 ft 444 kts 168°
2026-04-24 09:54 37.43313 30.56681 39018 ft 444 kts 168°
2026-04-24 09:55 37.37219 30.59399 38998 ft 444 kts 168°
2026-04-24 09:55 37.31113 30.62118 39012 ft 444 kts 168°
2026-04-24 09:56 37.24967 30.64853 39005 ft 443 kts 168°
2026-04-24 09:56 37.19025 30.67515 39021 ft 442 kts 168°
2026-04-24 09:57 37.13040 30.70184 38980 ft 441 kts 169°
2026-04-24 09:57 37.07067 30.72827 38991 ft 440 kts 169°
2026-04-24 09:58 37.01012 30.75496 39000 ft 439 kts 169°
2026-04-24 09:58 36.94924 30.77831 38970 ft 434 kts 174°
2026-04-24 09:59 36.88877 30.79242 38962 ft 427 kts 181°
2026-04-24 09:59 36.82921 30.79784 38959 ft 422 kts 186°
2026-04-24 10:00 36.76993 30.79977 38957 ft 422 kts 186°
2026-04-24 10:00 36.70868 30.80184 38944 ft 423 kts 186°
2026-04-24 10:01 36.64680 30.80397 38951 ft 423 kts 186°
2026-04-24 10:01 36.58526 30.80608 38945 ft 423 kts 186°
2026-04-24 10:02 36.52341 30.80816 38943 ft 423 kts 186°
2026-04-24 10:02 36.46362 30.81020 38940 ft 423 kts 186°
2026-04-24 10:03 36.40538 30.81222 38949 ft 423 kts 186°
2026-04-24 10:03 36.34476 30.81430 38937 ft 423 kts 186°
2026-04-24 10:04 36.28502 30.81631 38942 ft 424 kts 186°
2026-04-24 10:04 36.25525 30.81730 39044 ft 424 kts 186°
2026-04-24 10:04 36.22647 30.81825 38983 ft 424 kts 186°
2026-04-24 10:05 36.16893 30.82014 38952 ft 423 kts 186°
2026-04-24 10:05 36.10958 30.82208 38948 ft 423 kts 186°
2026-04-24 10:06 36.02151 30.82523 38953 ft 425 kts 185°
2026-04-24 10:07 35.96301 30.82889 38807 ft 425 kts 184°
2026-04-24 10:07 35.93337 30.83080 38493 ft 423 kts 184°
2026-04-24 10:07 35.90268 30.83272 38071 ft 420 kts 184°
2026-04-24 10:07 35.87392 30.83450 37590 ft 417 kts 184°
2026-04-24 10:08 35.84412 30.83630 37024 ft 415 kts 184°
2026-04-24 10:08 35.81370 30.83811 36417 ft 416 kts 184°
2026-04-24 10:08 35.78346 30.83990 35730 ft 416 kts 184°
2026-04-24 10:08 35.75314 30.84171 35049 ft 417 kts 184°
2026-04-24 10:09 35.72324 30.84353 34316 ft 418 kts 184°
2026-04-24 10:09 35.69266 30.84835 33660 ft 424 kts 175°
2026-04-24 10:09 35.66323 30.85841 32991 ft 432 kts 168°
2026-04-24 10:09 35.63432 30.87408 32251 ft 441 kts 159°
2026-04-24 10:10 35.60688 30.89537 31429 ft 453 kts 150°
2026-04-24 10:10 35.58168 30.92234 30575 ft 465 kts 141°
2026-04-24 10:10 35.56025 30.95380 29844 ft 473 kts 132°
2026-04-24 10:10 35.54113 30.98865 29349 ft 470 kts 129°
2026-04-24 10:11 35.52297 31.02310 28825 ft 465 kts 129°
2026-04-24 10:11 35.50489 31.05751 28319 ft 460 kts 129°
2026-04-24 10:11 35.48709 31.09117 27798 ft 456 kts 129°
2026-04-24 10:11 35.46929 31.12459 27292 ft 451 kts 129°
2026-04-24 10:12 35.45181 31.15724 26786 ft 447 kts 129°
2026-04-24 10:12 35.43431 31.18980 26260 ft 443 kts 129°
2026-04-24 10:12 35.41690 31.22213 25751 ft 439 kts 129°
2026-04-24 10:12 35.39981 31.25383 25249 ft 436 kts 129°
2026-04-24 10:13 35.38259 31.28575 24744 ft 432 kts 129°
2026-04-24 10:13 35.36568 31.31702 24238 ft 428 kts 128°
2026-04-24 10:13 35.34849 31.34880 23740 ft 425 kts 128°
2026-04-24 10:13 35.33145 31.38027 23235 ft 422 kts 128°
2026-04-24 10:14 35.31474 31.41111 22757 ft 418 kts 128°
2026-04-24 10:14 35.29810 31.44179 22273 ft 415 kts 128°
2026-04-24 10:14 35.28164 31.47211 21781 ft 413 kts 128°
2026-04-24 10:14 35.26491 31.50290 21285 ft 411 kts 128°
2026-04-24 10:15 35.24858 31.53293 20808 ft 408 kts 128°
2026-04-24 10:15 35.23226 31.56291 20328 ft 406 kts 128°
2026-04-24 10:15 35.21629 31.59223 19853 ft 405 kts 128°
2026-04-24 10:15 35.20012 31.62187 19354 ft 404 kts 127°
2026-04-24 10:16 35.18391 31.65155 18860 ft 402 kts 128°
2026-04-24 10:16 35.16783 31.68112 18369 ft 400 kts 127°
2026-04-24 10:16 35.15203 31.71019 17901 ft 398 kts 127°
2026-04-24 10:16 35.13601 31.73960 17414 ft 396 kts 127°
2026-04-24 10:17 35.12032 31.76836 16940 ft 393 kts 127°
2026-04-24 10:17 35.10450 31.79726 16464 ft 391 kts 127°
2026-04-24 10:17 35.08861 31.82624 15979 ft 388 kts 127°
2026-04-24 10:17 35.07287 31.85493 15494 ft 386 kts 127°
2026-04-24 10:18 35.05715 31.88355 15008 ft 384 kts 127°
2026-04-24 10:18 35.04147 31.91206 14520 ft 382 kts 127°
2026-04-24 10:18 35.02581 31.94051 14034 ft 379 kts 127°
2026-04-24 10:18 35.01052 31.96827 13556 ft 377 kts 127°
2026-04-24 10:19 34.99519 31.99607 13049 ft 375 kts 126°
2026-04-24 10:19 34.97982 32.02390 12565 ft 373 kts 126°
2026-04-24 10:19 34.96460 32.05144 12081 ft 372 kts 126°
2026-04-24 10:19 34.94965 32.07850 11586 ft 370 kts 126°
2026-04-24 10:20 34.93449 32.10594 11068 ft 369 kts 126°
2026-04-24 10:20 34.91837 32.13278 10546 ft 367 kts 130°
2026-04-24 10:20 34.90170 32.15746 10209 ft 358 kts 131°
2026-04-24 10:20 34.88531 32.18113 10116 ft 345 kts 132°
2026-04-24 10:21 34.86962 32.20359 9982 ft 331 kts 132°
2026-04-24 10:21 34.85470 32.22503 9802 ft 316 kts 131°
2026-04-24 10:21 34.84016 32.24597 9422 ft 307 kts 131°
2026-04-24 10:21 34.82618 32.26615 9077 ft 299 kts 131°
2026-04-24 10:22 34.81247 32.28597 8758 ft 294 kts 131°
2026-04-24 10:22 34.79889 32.30560 8425 ft 293 kts 131°
2026-04-24 10:22 34.78541 32.32508 8098 ft 293 kts 131°
2026-04-24 10:22 34.77195 32.34452 7763 ft 292 kts 131°
2026-04-24 10:23 34.75816 32.36446 7439 ft 292 kts 131°
2026-04-24 10:23 34.74461 32.38402 7118 ft 291 kts 131°
2026-04-24 10:23 34.73092 32.40382 6789 ft 291 kts 131°
2026-04-24 10:23 34.71735 32.42342 6452 ft 291 kts 131°
2026-04-24 10:24 34.70370 32.44309 6116 ft 290 kts 131°
2026-04-24 10:24 34.69035 32.46230 5792 ft 289 kts 131°
2026-04-24 10:24 34.67697 32.48156 5468 ft 288 kts 131°
2026-04-24 10:24 34.66358 32.50084 5140 ft 287 kts 130°
2026-04-24 10:25 34.65002 32.52035 4809 ft 286 kts 130°
2026-04-24 10:25 34.63658 32.53966 4481 ft 285 kts 130°
2026-04-24 10:25 34.62317 32.55893 4153 ft 283 kts 130°
2026-04-24 10:25 34.60989 32.57800 4030 ft 274 kts 130°
2026-04-24 10:26 34.59732 32.59607 3980 ft 261 kts 130°
2026-04-24 10:26 34.58579 32.61431 3822 ft 254 kts 117°
2026-04-24 10:26 34.58078 32.63556 3627 ft 247 kts 91°
2026-04-24 10:26 34.58337 32.65671 3422 ft 239 kts 68°
2026-04-24 10:27 34.59237 32.67451 3090 ft 238 kts 44°
2026-04-24 10:27 34.60616 32.68655 2977 ft 226 kts 22°
2026-04-24 10:27 34.62138 32.69140 2966 ft 211 kts
2026-04-24 10:27 34.63611 32.68974 3026 ft 199 kts 344°
2026-04-24 10:28 34.64877 32.68290 2995 ft 184 kts 327°
2026-04-24 10:28 34.65823 32.67276 2961 ft 168 kts 310°
2026-04-24 10:28 34.66459 32.66069 2830 ft 160 kts 296°
2026-04-24 10:28 34.66869 32.64796 2649 ft 154 kts 291°
2026-04-24 10:29 34.67220 32.63589 2528 ft 146 kts 291°
2026-04-24 10:29 34.67585 32.62381 2401 ft 145 kts 292°
2026-04-24 10:29 34.67953 32.61190 2278 ft 144 kts 292°
2026-04-24 10:29 34.68297 32.60070 2092 ft 132 kts 291°
2026-04-24 10:30 34.68621 32.58995 1764 ft 129 kts 289°
2026-04-24 10:30 34.68902 32.57948 1451 ft 128 kts 288°
2026-04-24 10:30 34.69195 32.56884 1169 ft 130 kts 288°
2026-04-24 10:30 34.69523 32.55833 989 ft 129 kts 290°
2026-04-24 10:31 34.69884 32.54767 826 ft 132 kts 291°
2026-04-24 10:31 34.70201 32.53692 722 ft 130 kts 287°
2026-04-24 10:31 34.70547 32.52618 522 ft 132 kts 291°
2026-04-24 10:31 34.70880 32.51537 342 ft 131 kts 289°
2026-04-24 10:32 34.71213 32.50476 163 ft 129 kts 289°
2026-04-24 10:32 34.71532 32.49432 46 ft 118 kts 289°
2026-04-24 10:32 34.71715 32.48823 45 ft 37 kts 289°
2026-04-24 10:32 34.71788 32.48564 49 ft 27 kts 290°
2026-04-24 10:33 34.71813 32.48482 51 ft 4 kts 291°
2026-04-24 10:33 34.71815 32.48439 52 ft 5 kts 249°
2026-04-24 10:33 34.71774 32.48407 51 ft 8 kts 193°
2026-04-24 10:33 34.71701 32.48378 48 ft 12 kts 201°
2026-04-24 10:34 34.71604 32.48330 46 ft 15 kts 201°
2026-04-24 10:34 34.71481 32.48277 39 ft 19 kts 200°
2026-04-24 10:34 34.71393 32.48325 36 ft 17 kts 107°
2026-04-24 10:34 34.71347 32.48476 34 ft 14 kts 111°
2026-04-24 10:35 34.71376 32.48590 33 ft 14 kts 65°
2026-04-24 10:35 34.71421 32.48710 34 ft 15 kts 65°
2026-04-24 10:35 34.71461 32.48816 36 ft 8 kts 65°
2026-04-24 10:35 34.71458 32.48886 37 ft 8 kts 159°
2026-04-24 10:36 34.71413 32.48912 36 ft 5 kts 156°
2026-04-24 10:36 34.71397 32.48922 36 ft 0 kts 154°